Regional Weather Roundup
Issued by NWS Charleston, SC

Current Version | Previous Version | Graphics & Text | Print | Product List | Glossary On
Versions: 1 2 3 4 5 6 7 8 9 10 11 12 13 14 15 16 17 18 19 20 21 22 23 24 25 26 27 28 29 30 31 32 33 34 35 36 37 38 39 40 41 42 43 44 45 46 47 48 49 50
000
ASUS42 KCHS 191927
RWRCHS

REGIONAL WEATHER ROUNDUP
NATIONAL WEATHER SERVICE CHARLESTON SC
200 PM EST THU JAN 19 2017

NOTE: "FAIR" INDICATES FEW OR NO CLOUDS BELOW 12,000 FEET WITH NO
SIGNIFICANT WEATHER AND/OR OBSTRUCTIONS TO VISIBILITY.

NOT ALL STATIONS ARE QUALITY CONTROLLED. USE DATA WITH CAUTION...
ESPECIALLY DEWPOINT OBSERVATIONS.

SCZ027-030-031-034>040-042>050-192000-
...SOUTHEAST SOUTH CAROLINA...

CITY           SKY/WX    TMP DP  RH WIND       PRES   REMARKS
N CHARLESTON   PTSUNNY   72  54  53 E10       29.99F
WATERFRONT PRK   N/A     66  57  72 E6        30.00F
MOUNT PLEASANT FAIR      68  55  64 CALM      30.00F
JOHNS ISLAND   FAIR      68  55  64 E12       29.99F
PINOPOLIS        N/A     59  55  88 NW7       29.92F
MONCKS CORNER  FAIR      70  52  52 CALM      30.00S
SUMMERVILLE    FAIR      72  55  56 CALM      30.00F
BEAUFORT MCAS  PTSUNNY   69  51  52 E5        29.99F
BEAUFORT ARPT  FAIR      68  54  60 NE5       29.99F
HILTON HEAD IS SUNNY     68  57  68 NE7       30.01F
WALTERBORO     CLEAR     70  52  52 CALM      30.00F
ALLENDALE      FAIR      72  50  46 E5        29.98F

...SOUTHERN MIDLANDS AND PEE DEE...

CITY           SKY/WX    TMP DP  RH WIND       PRES   REMARKS
GEORGETOWN     FAIR      64  48  55 E9        30.03S
KINGSTREE      FAIR      66  41  39 NE3       30.01F
ORANGEBURG     SUNNY     66  48  52 NE5       30.01F
BARNWELL       FAIR      72  52  49 VRB3      29.99F
AIKEN          FAIR      68  43  40 CALM      30.03F
MANNING        FAIR      68  -9   4 CALM      30.01F
COLUMBIA       PTSUNNY   69  42  37 VRB6      30.01F
SUMTER         SUNNY     67  40  36 NE3       29.99F
FLORENCE       SUNNY     66  42  41 CALM      30.02F
MYRTLE BEACH   SUNNY     63  46  55 SE12      30.05
N MYRTLE BEACH SUNNY     59  48  67 SE9       30.03F

$$

GAZ063-065-086>088-099>101-113>116-118-119-134>141-150-192000-
...SOUTHEAST GEORGIA...

CITY           SKY/WX    TMP DP  RH WIND       PRES   REMARKS
SAVANNAH ARPT  PTSUNNY   79  48  33 VRB3      29.98F
HUNTER AAF     MOSUNNY   78  54  43 VRB5      29.95F
FORT STEWART   MOSUNNY   76  56  50 CALM      29.96F
STATESBORO     SUNNY     75  56  51 N5        29.98S
SYLVANIA       CLEAR    N/A N/A N/A NW6       29.99S
CLAXTON        FAIR      75  59  56 SW3       29.98F

...CSRA...CENTRAL AND FAR SOUTHEAST GEORGIA...

CITY           SKY/WX    TMP DP  RH WIND       PRES   REMARKS
THOMSON        PTSUNNY   72  49  44 CALM      30.04F
AUGUSTA-BUSH   MOSUNNY   71  41  33 VRB3      29.99F
AUGUSTA-DANIEL SUNNY     69  39  33 S5        30.00F
SWAINSBORO     FAIR      75  55  50 MISG      29.99F
VIDALIA        MOSUNNY   77  61  57 W3        29.99S
EASTMAN        MOCLDY    77  49  36 SW5       30.00F
HAZLEHURST     FAIR      75  63  64 CALM      29.98F
ALMA           MOSUNNY   74  61  63 S3        29.99F
WAYCROSS       CLOUDY    78  64  61 W5        29.98F
JESUP          FAIR      77  57  50 W3        29.99F
BAXLEY         FAIR      75  63  64 CALM      29.98F
BRUNSWICK      MOSUNNY   77  63  61 CALM      29.99F
SAINT SIMONS   PTSUNNY   70  52  52 SE9       29.99F

$$

SCZ027-028-034-036>038-045-046-048>050-GAZ119-141-192000-
...LAKE AND SUPPLEMENTAL COASTAL OBSERVATIONS...

STATION/POSITION TIME  TEMP    WIND        PRES    WAVE   SWELL
                       AIR SEA DIR/SP/G            HT/PER HT/PER/DIR
                 (UTC) (F)     (DEG/KT/KT) (MB)    (FT/S) (FT/S/D)
WINYAH BAY       1830   56      60/ 10     1017.0F
LAKE MURRAY      1850   63     210/  1/  4 1015.9F
ACE BASIN NERRS  1845   70     160/  1     1016.0F
FORT PULASKI     1900      57  100/ 12/ 13 1015.9
SAPELO ISLAND    1900   75     130/  5     1015.0

$$

ANZ835-935-AMZ111-154-330-350-352-354-370-450-454-472-192000-
...C-MAN AND BUOY OBSERVATIONS...

STATION/POSITION TIME  TEMP    WIND        PRES    WAVE   SWELL
                       AIR SEA DIR/SP/G            HT/PER HT/PER/DIR
                 (UTC) (F)     (DEG/KT/KT) (MB)    (FT/S) (FT/S/D)
BUOY 41004       1850   68 72   50/ 14/ 17 1015.1F   4/ 9   2/ 80/ 9
BUOY 41008       1850   62 61  230/  4/  4 1015.3F   1
FOLLY BEACH CMAN 1900   58      50/ 14/ 17 1016.5F
CAPERS NEARSHORE 1908   56 55   60/ 16/ 19 1015.8F
FRIPP NEARSHORE  1908   58 58   50/  8/ 12 1015.6F


STATION/POSITION TIME  TEMP    WIND        PRES    WAVE   SWELL
                       AIR SEA DIR/SP/G            HT/PER HT/PER/DIR
                 (UTC) (F)     (DEG/KT/KT) (MB)    (FT/S) (FT/S/D)
5E ST. MARYS GA  1900      65                N/A     1
FRYING PAN BUOY  1910   61 71   20/ 10/ 12 1016.5
BUOY 41025       1850   53 76  360/ 14/ 17 1017.1F   6/11   5/ 60/11
CAPE LOOKOUT NC  1900   55      40/  5/  7 1017.1F
BUOY 41002       1850   67 72  360/  8/ 10 1015.5F   7/ 8   7/ 10/ 8
BUOY 41010       NOT AVBL
ST AUGUSTINE FL  1900   63 64  100/  6/  7 1016.5F


$$



USA.gov is the U.S. government's official web portal to all federal, state and local government web resources and services.